Torna al catalogo

STARLINK-35861

AttivoComunicazioniVLEO
NORAD 66355·PAYLOAD·🇺🇸 United States

Lanciato Nov 6, 2025 da Vandenberg Space Force Base

Loading…

Prossimi Passaggi (prossime 24 ore)

TLE

AggiornatoSource: CelesTrak SupGP

Epoca: Sep 15, 2026, 03:49 UTC

1 66355C 25254H   26258.15951389 -.00024848  00000+0 -73423-3 0  2584
2 66355  53.1585  70.7449 0001228  89.3772  49.7810 15.34398520    14

Traccia STARLINK-35861 in tempo reale con AllMySat

Download on the App Store